Regional Weather Roundup
Issued by NWS

Home | Current Version | Previous Version | Text Only | Print | Product List | Glossary Off
Versions: 1 2 3 4 5 6 7 8 9 10 11 12 13 14 15 16 17 18 19 20 21 22 23 24 25 26 27 28 29 30 31 32 33 34 35 36 37 38 39 40 41 42 43 44 45 46 47 48 49 50

000
ASUS43 KDMX 020507
RWRIA

WEATHER ROUNDUP FOR IOWA
NATIONAL WEATHER SERVICE DES MOINES IA
1200 AM CDT WED SEP 02 2015

NOTE: "FAIR" INDICATES FEW OR NO CLOUDS BELOW 12,000 FEET WITH NO
SIGNIFICANT WEATHER AND/OR OBSTRUCTIONS TO VISIBILITY.

* - THESE STATIONS ARE NOT NWS STATIONS...THUS NOT UNDER NWS
QUALITY CONTROL.  THEY ALSO DO NOT REPORT WEATHER SUCH
AS PRECIPITATION OR FOG.

IAZ001>003-012>014-020>022-031>034-043>046-020600-
   NORTHWEST IOWA

CITY           SKY/WX    TMP DP  RH WIND       PRES   REMARKS
CARROLL *      CLOUDY    75  70  83 S13       29.95S
CHEROKEE *     MOCLDY    75  70  83 S12       29.91S
DENISON *      CLEAR     75  68  78 S12G20    29.92S
LE MARS *      CLEAR     75  70  83 S10       29.89S
ORANGE CITY *  CLEAR     73  70  88 S9        29.89S
SHELDON *      CLOUDY    75  70  83 S9        29.89S
SIOUX CITY     CLEAR     75  67  76 S9        29.88S
SPENCER        CLOUDY    76  69  79 S13       29.91S
STORM LAKE *   PTCLDY    73  70  88 S13       29.94S
$$

IAZ055>058-069>071-079>083-090>094-020600-
   SOUTHWEST IOWA

CITY           SKY/WX    TMP DP  RH WIND       PRES   REMARKS
ATLANTIC *     LGT RAIN  75  70  83 S12       29.96F
AUDUBON *      MOCLDY    75  70  83 S8        29.97F
CLARINDA *     MOCLDY    75  70  83 S9        29.99S
COUNCIL BLFS * CLEAR     75  68  78 S13G20    29.94F
CRESTON *      PTCLDY    75  68  78 S13       30.01F
LAMONI         PTCLDY    74  68  81 S7        30.01F
RED OAK *      MOCLDY    77  70  78 S13       29.96S
SHENANDOAH *   MOCLDY    77  70  78 S10       29.96F
$$

IAZ047>049-059>061-072>074-084-020600-
   CENTRAL IOWA

CITY           SKY/WX    TMP DP  RH WIND       PRES   REMARKS
AMES           MOCLDY    71  69  93 SE5       29.97S
ANKENY *       CLEAR     73  70  88 S7        29.98S
CHARITON *     CLEAR     75  68  78 S8        30.01S
DES MOINES     MOCLDY    76  67  73 S9        29.98S
GRINNELL*      CLEAR     73  68  83 S7        30.01F
KNOXVILLE *    CLEAR     75  68  78 S8        29.99S
MARSHALLTOWN   PTCLDY    72  68  87 S5        29.98S
PELLA *        CLEAR     72  72  98 S5        30.01S
PERRY *          N/A     75  70  83 S7        29.97S
$$

IAZ004>006-015-016-023>025-035-036-020600-
   NORTH CENTRAL IOWA

CITY           SKY/WX    TMP DP  RH WIND       PRES   REMARKS
ALGONA *       CLEAR     73  70  88 S13       29.94S
CLARION *      CLEAR     75  70  83 S14       29.96S
ESTHERVILLE    TSTM      74  69  85 SE17G28   29.92S
FORT DODGE *   PTCLDY    77  66  69 S12       29.96S
MASON CITY     PTCLDY    73  71  93 S7        29.98R
FOREST CITY *  CLEAR     70  70 100 SE5       29.97R
IOWA FALLS *     N/A     73  70  88 S7        29.99S
$$

IAZ007>011-017>019-026>030-037>042-050>054-066-020600-
   NORTHEAST IOWA

CITY           SKY/WX    TMP DP  RH WIND       PRES   REMARKS
CEDAR RAPIDS   CLEAR     71  70  96 S5        30.01S
CHARLES CITY * MOCLDY    73  73 100 S8        29.99S
CLINTON *      PTCLDY    72  68  88 S5        30.05S
DECORAH *      CLEAR     75  73  94 S7        29.99S
DUBUQUE        PTCLDY    71  69  93 S8        30.03S
MONTICELLO *   CLEAR     72  70  94 S3        30.01S
OELWEIN *      CLEAR     72  70  94 S7        30.01S
WATERLOO       CLEAR     74  70  87 S7        29.98S
$$

IAZ064-065-067-068-078-020600-
   EAST CENTRAL IOWA

CITY           SKY/WX    TMP DP  RH WIND       PRES   REMARKS
DAVENPORT      PTCLDY    76  69  79 SW7       30.03S
IOWA CITY      CLEAR     73  70  90 SE3       30.02S
MT. PLEASANT * PTCLDY    73  68  83 S5        30.03F
MUSCATINE *    CLEAR     75  70  83 S5        30.02F
QUAD CITIES    PTCLDY    77  68  73 S5        30.02S
$$

IAZ062-063-075>077-085>089-095>099-020600-
   SOUTHEAST IOWA

CITY           SKY/WX    TMP DP  RH WIND       PRES   REMARKS
BURLINGTON     PTCLDY    74  70  87 SW6       30.04S
FAIRFIELD *    CLEAR     75  68  78 S7        30.02F
FORT MADISON * CLEAR     73  72  94 S6        30.05S
KEOKUK *       CLEAR     77  70  78 SW7       30.04R
OSKALOOSA *      N/A     72  68  88 S6        30.02S
CENTERVILLE *  CLEAR     72  68  88 S7        30.04S
OTTUMWA        CLEAR     73  70  90 S8        30.00S
WASHINGTON *     N/A    N/A N/A N/A MISG        N/A
$$

ABBREVIATIONS USED IN REMARKS
   TC - TEMPERATURES IN CELSIUS
  WCI - WIND CHILL INDEX
   HX - HEAT INDEX
  VSB - VISIBILITY
$$



USA.gov is the U.S. government's official web portal to all federal, state and local government web resources and services.